Showing default

OPS 7202 (DMSP 4A F3), 2920

Orbit data source: Space-Track

OPS 7202 (DMSP 4A F3), 2920 is a payload satellite owned by SAMSO (US) in SSO that was launched on Wed, 23 Aug 1967 UTC via a THOR BURNER 2 launch vehicle from the Air Force Western Test Range (AFWTR). Payload-class satellites include a variety of spacecraft equipped with specific instruments for various scientific and technological missions. These include communications satellites like Starlink; space stations such as the ISS; scientific satellites like the Hubble; Earth observation satellites from companies like Planet Labs, Umbra, and HawkEye 360; GPS; miniature CubeSats for education and research; and military/defense satellites.

Loading next visibility...
Identifier
2920, 1967-080A
Orbit
SSO
Country
Flag of USUS
Related business
Manufacturer
RCA/East Windsor
Mission
Non-operational spacecraft
Bus & Motor
DMSP BLOCK 4A, Unknown motor
Mass
79 kg wet, 79 kg dry
Launch date (UTC)
1967-08-23 (59 years ago)
Launch vehicle
THOR BURNER 2
Launch site
Air Force Western Test Range (AFWTR)
Object type
Payload
Rocket body
Debris
Shape & HBR
Unknown
Radar Cross Section
Medium (>0.1 m² and <1 m²)

Expand to show TLE details & history
Last TLE update: 15 hours ago

TLE from 15 hours ago
0 OPS 7202 (DMSP 4A F3)
1 02920U 67080A   26140.84226366  .00000023  00000-0  32815-4 0  9992
2 02920  98.5893 351.7743 0039125  76.0326 284.5194 14.15304303 28840
Epoch: 2026-05-20T20:12Z
TLE epoch observation values (Epoch: 2026-05-20T20:12:51.580Z)
Latitude
-0.00005°
Longitude
170.06337°
Altitude
837.21 km
Speed
7.438 km/s
True Right ascension
23h 27m 05s
True Declination
0° 00' 00"
Sunlit
Object was in daylight at epoch
Visualization orbit readout
Latitude
Unknown
Longitude
Unknown
Altitude
Unknown
Speed
Unknown
Apparent Right ascension
Unknown
Apparent Declination
Unknown
Sunlit
N/A
Visualization observer readout
Local Sidereal Time
19:47:42
Azimuth
Unknown
Elevation
Unknown
Doppler factor
Unknown
Orbital elements
Apogee altitude
866.671 km
Perigee altitude
810.201 km
Semi-major axis
7,216.573 km
Eccentricity
0.00391
Inclination
98.5893°
RAAN
351.7743°
Arg. of periapsis
76.0326°
True anomaly
284.08485°
Mean anomaly
284.5194°
Eccentric anomaly
284.30218°
Mean motion
3.54035 °/min
Orbital period
101.68 mins
BSTAR
0.000032815
Loading maneuver chart data...
Computing Atmospheric mass density...
Loading historical data...
Loading historical data...
Loading historical data...
Loading historical data...
Loading historical data...
Loading historical data...
Loading historical data...
Other satellites on launch #80 in the year 1967 (1967-08-23 UTC)

Documentation

Showing up to 5 results
|